Location: Ferques
(50.8300°N, 1.7599°E)
Time: 06:42:50
(UTC+00:00)

NOSS 3-1 (A) - Pass Details

Date: 19 May 2025
Orbit: 667 x 1541 km, 63.4° (Epoch: 14 June)

Event Time Altitude Azimuth Distance (km) Brightness Sun altitude
Exits shadow 20:49:58 10° 153° (SSE) 2,166 4.7 -9.0°
Maximum altitude 20:53:15 19° 110° (ESE) 1,775 4.4 -9.3°
Drops below altitude 10° 20:57:02 10° 67° (ENE) 2,462 5.5 -9.7°
Sets 21:00:24 0° 50° (NE) 3,561 6.5 -10.1°
